Year,Month,Day,Hour,Minute,Value (Times are PST for temperature in C)
2011,07,09,00,00,11.60
2011,07,09,00,01,11.60
2011,07,09,00,02,11.60
2011,07,09,00,03,11.60
2011,07,09,00,04,11.60
2011,07,09,00,05,11.60
2011,07,09,00,06,11.60
2011,07,09,00,07,11.60
2011,07,09,00,08,11.60
2011,07,09,00,09,11.60
2011,07,09,00,10,11.60
2011,07,09,00,11,11.60
2011,07,09,00,12,11.60
2011,07,09,00,13,11.60
2011,07,09,00,14,11.60
2011,07,09,00,15,11.60
2011,07,09,00,16,11.60
2011,07,09,00,17,11.60
2011,07,09,00,18,11.50
2011,07,09,00,19,11.40
2011,07,09,00,20,11.40
2011,07,09,00,21,11.40
2011,07,09,00,22,11.40
2011,07,09,00,23,11.40
2011,07,09,00,24,11.40
2011,07,09,00,25,11.40
2011,07,09,00,26,11.40
2011,07,09,00,27,11.40
2011,07,09,00,28,11.40
2011,07,09,00,29,11.40
2011,07,09,00,30,11.40
2011,07,09,00,31,11.40
2011,07,09,00,32,11.40
2011,07,09,00,33,11.40
2011,07,09,00,34,11.40
2011,07,09,00,35,11.40
2011,07,09,00,36,11.40
2011,07,09,00,37,11.40
2011,07,09,00,38,11.40
2011,07,09,00,39,11.40
2011,07,09,00,40,11.30
2011,07,09,00,41,11.30
2011,07,09,00,42,11.30
2011,07,09,00,43,11.30
2011,07,09,00,44,11.30
2011,07,09,00,45,11.30
2011,07,09,00,46,11.30
2011,07,09,00,47,11.30
2011,07,09,00,48,11.30
2011,07,09,00,49,11.30
2011,07,09,00,50,11.30
2011,07,09,00,51,11.30
2011,07,09,00,52,11.30
2011,07,09,00,53,11.20
2011,07,09,00,54,11.20
2011,07,09,00,55,11.20
2011,07,09,00,56,11.20
2011,07,09,00,57,11.20
2011,07,09,00,58,11.20
2011,07,09,00,59,11.20
2011,07,09,01,00,11.20
2011,07,09,01,01,11.20
2011,07,09,01,02,11.10
2011,07,09,01,03,11.10
2011,07,09,01,04,11.10
2011,07,09,01,05,11.10
2011,07,09,01,06,11.10
2011,07,09,01,07,11.10
2011,07,09,01,08,11.10
2011,07,09,01,09,11.10
2011,07,09,01,10,11.10
2011,07,09,01,11,11.10
2011,07,09,01,12,11.10
2011,07,09,01,13,11.10
2011,07,09,01,14,11.10
2011,07,09,01,15,11.10
2011,07,09,01,16,11.10
2011,07,09,01,17,11.10
2011,07,09,01,18,11.10
2011,07,09,01,19,11.10
2011,07,09,01,20,11.10
2011,07,09,01,21,11.10
2011,07,09,01,22,11.00
2011,07,09,01,23,10.90
2011,07,09,01,24,10.90
2011,07,09,01,25,10.90
2011,07,09,01,26,10.90
2011,07,09,01,27,10.90
2011,07,09,01,28,10.90
2011,07,09,01,29,10.90
2011,07,09,01,30,10.90
2011,07,09,01,31,10.90
2011,07,09,01,32,10.90
2011,07,09,01,33,10.90
2011,07,09,01,34,10.80
2011,07,09,01,35,10.80
2011,07,09,01,36,10.80
2011,07,09,01,37,10.80
2011,07,09,01,38,10.70
2011,07,09,01,39,10.70
2011,07,09,01,40,10.70
2011,07,09,01,41,10.60
2011,07,09,01,42,10.60
2011,07,09,01,43,10.60
2011,07,09,01,44,10.60
2011,07,09,01,45,10.60
2011,07,09,01,46,10.60
2011,07,09,01,47,10.50
2011,07,09,01,48,10.40
2011,07,09,01,49,10.40
2011,07,09,01,50,10.40
2011,07,09,01,51,10.40
2011,07,09,01,52,10.40
2011,07,09,01,53,10.40
2011,07,09,01,54,10.40
2011,07,09,01,55,10.40
2011,07,09,01,56,10.40
2011,07,09,01,57,10.40
2011,07,09,01,58,10.40
2011,07,09,01,59,10.40
2011,07,09,02,00,10.40
2011,07,09,02,01,10.40
2011,07,09,02,02,10.40
2011,07,09,02,03,10.40
2011,07,09,02,04,10.40
2011,07,09,02,05,10.40
2011,07,09,02,06,10.30
2011,07,09,02,07,10.30
2011,07,09,02,08,10.30
2011,07,09,02,09,10.20
2011,07,09,02,10,10.20
2011,07,09,02,11,10.20
2011,07,09,02,12,10.20
2011,07,09,02,13,10.20
2011,07,09,02,14,10.20
2011,07,09,02,15,10.20
2011,07,09,02,16,10.20
2011,07,09,02,17,10.10
2011,07,09,02,18,10.10
2011,07,09,02,19,10.10
2011,07,09,02,20,10.10
2011,07,09,02,21,10.10
2011,07,09,02,22,10.10
2011,07,09,02,23,10.10
2011,07,09,02,24,10.10
2011,07,09,02,25,10.10
2011,07,09,02,26,10.10
2011,07,09,02,27,10.00
2011,07,09,02,28,9.90
2011,07,09,02,29,9.90
2011,07,09,02,30,9.90
2011,07,09,02,31,9.90
2011,07,09,02,32,9.90
2011,07,09,02,33,9.90
2011,07,09,02,34,9.90
2011,07,09,02,35,9.90
2011,07,09,02,36,9.80
2011,07,09,02,37,9.80
2011,07,09,02,38,9.80
2011,07,09,02,39,9.80
2011,07,09,02,40,9.80
2011,07,09,02,41,9.70
2011,07,09,02,42,9.70
2011,07,09,02,43,9.70
2011,07,09,02,44,9.70
2011,07,09,02,45,9.70
2011,07,09,02,46,9.70
2011,07,09,02,47,9.70
2011,07,09,02,48,9.70
2011,07,09,02,49,9.70
2011,07,09,02,50,9.70
2011,07,09,02,51,9.70
2011,07,09,02,52,9.70
2011,07,09,02,53,9.70
2011,07,09,02,54,9.70
2011,07,09,02,55,9.70
2011,07,09,02,56,9.70
2011,07,09,02,57,9.70
2011,07,09,02,58,9.60
2011,07,09,02,59,9.60
2011,07,09,03,00,9.60
2011,07,09,03,01,9.60
2011,07,09,03,02,9.60
2011,07,09,03,03,9.60
2011,07,09,03,04,9.60
2011,07,09,03,05,9.50
2011,07,09,03,06,9.50
2011,07,09,03,07,9.50
2011,07,09,03,08,9.50
2011,07,09,03,09,9.50
2011,07,09,03,10,9.40
2011,07,09,03,11,9.40
2011,07,09,03,12,9.40
2011,07,09,03,13,9.30
2011,07,09,03,14,9.30
2011,07,09,03,15,9.30
2011,07,09,03,16,9.30
2011,07,09,03,17,9.30
2011,07,09,03,18,9.20
2011,07,09,03,19,9.20
2011,07,09,03,20,9.20
2011,07,09,03,21,9.20
2011,07,09,03,22,9.20
2011,07,09,03,23,9.20
2011,07,09,03,24,9.20
2011,07,09,03,25,9.20
2011,07,09,03,26,9.20
2011,07,09,03,27,9.20
2011,07,09,03,28,9.20
2011,07,09,03,29,9.20
2011,07,09,03,30,9.10
2011,07,09,03,31,9.10
2011,07,09,03,32,9.10
2011,07,09,03,33,9.10
2011,07,09,03,34,9.10
2011,07,09,03,35,9.10
2011,07,09,03,36,9.10
2011,07,09,03,37,9.10
2011,07,09,03,38,9.10
2011,07,09,03,39,9.00
2011,07,09,03,40,9.00
2011,07,09,03,41,9.00
2011,07,09,03,42,9.00
2011,07,09,03,43,9.00
2011,07,09,03,44,8.90
2011,07,09,03,45,8.90
2011,07,09,03,46,8.90
2011,07,09,03,47,8.90
2011,07,09,03,48,8.90
2011,07,09,03,49,8.80
2011,07,09,03,50,8.80
2011,07,09,03,51,8.80
2011,07,09,03,52,8.80
2011,07,09,03,53,8.70
2011,07,09,03,54,8.70
2011,07,09,03,55,8.70
2011,07,09,03,56,8.70
2011,07,09,03,57,8.70
2011,07,09,03,58,8.70
2011,07,09,03,59,8.70
2011,07,09,04,00,8.70
2011,07,09,04,01,8.70
2011,07,09,04,02,8.70
2011,07,09,04,03,8.70
2011,07,09,04,04,8.60
2011,07,09,04,05,8.60
2011,07,09,04,06,8.60
2011,07,09,04,07,8.60
2011,07,09,04,08,8.60
2011,07,09,04,09,8.60
2011,07,09,04,10,8.60
2011,07,09,04,11,8.60
2011,07,09,04,12,8.60
2011,07,09,04,13,8.60
2011,07,09,04,14,8.50
2011,07,09,04,15,8.50
2011,07,09,04,16,8.50
2011,07,09,04,17,8.50
2011,07,09,04,18,8.50
2011,07,09,04,19,8.50
2011,07,09,04,20,8.50
2011,07,09,04,21,8.50
2011,07,09,04,22,8.50
2011,07,09,04,23,8.50
2011,07,09,04,24,8.40
2011,07,09,04,25,8.40
2011,07,09,04,26,8.40
2011,07,09,04,27,8.40
2011,07,09,04,28,8.40
2011,07,09,04,29,8.40
2011,07,09,04,30,8.40
2011,07,09,04,31,8.40
2011,07,09,04,32,8.30
2011,07,09,04,33,8.30
2011,07,09,04,34,8.30
2011,07,09,04,35,8.30
2011,07,09,04,36,8.30
2011,07,09,04,37,8.30
2011,07,09,04,38,8.30
2011,07,09,04,39,8.20
2011,07,09,04,40,8.20
2011,07,09,04,41,8.20
2011,07,09,04,42,8.20
2011,07,09,04,43,8.20
2011,07,09,04,44,8.20
2011,07,09,04,45,8.20
2011,07,09,04,46,8.20
2011,07,09,04,47,8.20
2011,07,09,04,48,8.20
2011,07,09,04,49,8.20
2011,07,09,04,50,8.20
2011,07,09,04,51,8.20
2011,07,09,04,52,8.20
2011,07,09,04,53,8.20
2011,07,09,04,54,8.20
2011,07,09,04,55,8.20
2011,07,09,04,56,8.20
2011,07,09,04,57,8.20
2011,07,09,04,58,8.20
2011,07,09,04,59,8.20
2011,07,09,05,00,8.20
2011,07,09,05,01,8.20
2011,07,09,05,02,8.20
2011,07,09,05,03,8.20
2011,07,09,05,04,8.10
2011,07,09,05,05,8.10
2011,07,09,05,06,8.10
2011,07,09,05,07,8.10
2011,07,09,05,08,8.00
2011,07,09,05,09,8.00
2011,07,09,05,10,8.00
2011,07,09,05,11,8.00
2011,07,09,05,12,8.00
2011,07,09,05,13,8.00
2011,07,09,05,14,8.00
2011,07,09,05,15,8.00
2011,07,09,05,16,8.00
2011,07,09,05,17,8.00
2011,07,09,05,18,8.00
2011,07,09,05,19,8.00
2011,07,09,05,20,8.00
2011,07,09,05,21,8.00
2011,07,09,05,22,8.00
2011,07,09,05,23,8.00
2011,07,09,05,24,8.00
2011,07,09,05,25,7.90
2011,07,09,05,26,7.90
2011,07,09,05,27,7.90
2011,07,09,05,28,7.90
2011,07,09,05,29,7.90
2011,07,09,05,30,7.90
2011,07,09,05,31,7.90
2011,07,09,05,32,7.90
2011,07,09,05,33,7.90
2011,07,09,05,34,7.90
2011,07,09,05,35,7.90
2011,07,09,05,36,8.00
2011,07,09,05,37,8.00
2011,07,09,05,38,8.00
2011,07,09,05,39,8.00
2011,07,09,05,40,8.00
2011,07,09,05,41,8.00
2011,07,09,05,42,8.00
2011,07,09,05,43,8.00
2011,07,09,05,44,8.00
2011,07,09,05,45,8.00
2011,07,09,05,46,8.10
2011,07,09,05,47,8.10
2011,07,09,05,48,8.10
2011,07,09,05,49,8.20
2011,07,09,05,50,8.20
2011,07,09,05,51,8.20
2011,07,09,05,52,8.20
2011,07,09,05,53,8.20
2011,07,09,05,54,8.20
2011,07,09,05,55,8.20
2011,07,09,05,56,8.20
2011,07,09,05,57,8.20
2011,07,09,05,58,8.20
2011,07,09,05,59,8.20
2011,07,09,06,00,8.20
2011,07,09,06,01,8.20
2011,07,09,06,02,8.20
2011,07,09,06,03,8.30
2011,07,09,06,04,8.30
2011,07,09,06,05,8.40
2011,07,09,06,06,8.40
2011,07,09,06,07,8.40
2011,07,09,06,08,8.50
2011,07,09,06,09,8.50
2011,07,09,06,10,8.60
2011,07,09,06,11,8.60
2011,07,09,06,12,8.70
2011,07,09,06,13,8.70
2011,07,09,06,14,8.70
2011,07,09,06,15,8.70
2011,07,09,06,16,8.80
2011,07,09,06,17,8.80
2011,07,09,06,18,8.90
2011,07,09,06,19,8.90
2011,07,09,06,20,8.90
2011,07,09,06,21,8.90
2011,07,09,06,22,8.90
2011,07,09,06,23,8.90
2011,07,09,06,24,8.90
2011,07,09,06,25,8.90
2011,07,09,06,26,8.90
2011,07,09,06,27,8.90
2011,07,09,06,28,8.90
2011,07,09,06,29,8.90
2011,07,09,06,30,8.90
2011,07,09,06,31,9.00
2011,07,09,06,32,9.00
2011,07,09,06,33,9.00
2011,07,09,06,34,9.10
2011,07,09,06,35,9.10
2011,07,09,06,36,9.20
2011,07,09,06,37,9.20
2011,07,09,06,38,9.20
2011,07,09,06,39,9.30
2011,07,09,06,40,9.30
2011,07,09,06,41,9.30
2011,07,09,06,42,9.40
2011,07,09,06,43,9.40
2011,07,09,06,44,9.40
2011,07,09,06,45,9.40
2011,07,09,06,46,9.50
2011,07,09,06,47,9.50
2011,07,09,06,48,9.50
2011,07,09,06,49,9.50
2011,07,09,06,50,9.50
2011,07,09,06,51,9.60
2011,07,09,06,52,9.60
2011,07,09,06,53,9.60
2011,07,09,06,54,9.60
2011,07,09,06,55,9.60
2011,07,09,06,56,9.70
2011,07,09,06,57,9.70
2011,07,09,06,58,9.80
2011,07,09,06,59,9.80
2011,07,09,07,00,9.90
2011,07,09,07,01,10.00
2011,07,09,07,02,10.10
2011,07,09,07,03,10.10
2011,07,09,07,04,10.20
2011,07,09,07,05,10.30
2011,07,09,07,06,10.40
2011,07,09,07,07,10.40
2011,07,09,07,08,10.50
2011,07,09,07,09,10.60
2011,07,09,07,10,10.60
2011,07,09,07,11,10.70
2011,07,09,07,12,10.80
2011,07,09,07,13,10.90
2011,07,09,07,14,10.90
2011,07,09,07,15,11.00
2011,07,09,07,16,11.10
2011,07,09,07,17,11.10
2011,07,09,07,18,11.20
2011,07,09,07,19,11.20
2011,07,09,07,20,11.30
2011,07,09,07,21,11.40
2011,07,09,07,22,11.40
2011,07,09,07,23,11.60
2011,07,09,07,24,11.60
2011,07,09,07,25,11.60
2011,07,09,07,26,11.70
2011,07,09,07,27,11.80
2011,07,09,07,28,11.80
2011,07,09,07,29,11.80
2011,07,09,07,30,11.90
2011,07,09,07,31,12.00
2011,07,09,07,32,12.10
2011,07,09,07,33,12.20
2011,07,09,07,34,12.30
2011,07,09,07,35,12.40
2011,07,09,07,36,12.50
2011,07,09,07,37,12.50
2011,07,09,07,38,12.60
2011,07,09,07,39,12.60
2011,07,09,07,40,12.70
2011,07,09,07,41,12.80
2011,07,09,07,42,12.80
2011,07,09,07,43,12.90
2011,07,09,07,44,12.90
2011,07,09,07,45,12.90
2011,07,09,07,46,13.00
2011,07,09,07,47,13.00
2011,07,09,07,48,13.10
2011,07,09,07,49,13.10
2011,07,09,07,50,13.20
2011,07,09,07,51,13.20
2011,07,09,07,52,13.30
2011,07,09,07,53,13.30
2011,07,09,07,54,13.40
2011,07,09,07,55,13.40
2011,07,09,07,56,13.50
2011,07,09,07,57,13.50
2011,07,09,07,58,13.60
2011,07,09,07,59,13.70
2011,07,09,08,00,13.80
2011,07,09,08,01,13.90
2011,07,09,08,02,14.00
2011,07,09,08,03,14.10
2011,07,09,08,04,14.20
2011,07,09,08,05,14.20
2011,07,09,08,06,14.30
2011,07,09,08,07,14.30
2011,07,09,08,08,14.30
2011,07,09,08,09,14.30
2011,07,09,08,10,14.30
2011,07,09,08,11,14.30
2011,07,09,08,12,14.40
2011,07,09,08,13,14.40
2011,07,09,08,14,14.50
2011,07,09,08,15,14.50
2011,07,09,08,16,14.60
2011,07,09,08,17,14.60
2011,07,09,08,18,14.70
2011,07,09,08,19,14.80
2011,07,09,08,20,14.80
2011,07,09,08,21,14.90
2011,07,09,08,22,15.00
2011,07,09,08,23,15.00
2011,07,09,08,24,15.10
2011,07,09,08,25,15.20
2011,07,09,08,26,15.20
2011,07,09,08,27,15.20
2011,07,09,08,28,15.30
2011,07,09,08,29,15.30
2011,07,09,08,30,15.40
2011,07,09,08,31,15.50
2011,07,09,08,32,15.50
2011,07,09,08,33,15.50
2011,07,09,08,34,15.60
2011,07,09,08,35,15.60
2011,07,09,08,36,15.60
2011,07,09,08,37,15.70
2011,07,09,08,38,15.80
2011,07,09,08,39,15.80
2011,07,09,08,40,15.80
2011,07,09,08,41,15.90
2011,07,09,08,42,15.90
2011,07,09,08,43,15.90
2011,07,09,08,44,15.90
2011,07,09,08,45,15.90
2011,07,09,08,46,15.80
2011,07,09,08,47,15.80
2011,07,09,08,48,15.80
2011,07,09,08,49,15.80
2011,07,09,08,50,15.80
2011,07,09,08,51,15.80
2011,07,09,08,52,15.80
2011,07,09,08,53,15.80
2011,07,09,08,54,16.00
2011,07,09,08,55,16.10
2011,07,09,08,56,16.10
2011,07,09,08,57,16.10
2011,07,09,08,58,16.10
2011,07,09,08,59,16.10
2011,07,09,09,00,16.20
2011,07,09,09,01,16.30
2011,07,09,09,02,16.30
2011,07,09,09,03,16.40
2011,07,09,09,04,16.50
2011,07,09,09,05,16.60
2011,07,09,09,06,16.70
2011,07,09,09,07,16.80
2011,07,09,09,08,16.70
2011,07,09,09,09,16.70
2011,07,09,09,10,16.70
2011,07,09,09,11,16.80
2011,07,09,09,12,16.80
2011,07,09,09,13,16.90
2011,07,09,09,14,16.90
2011,07,09,09,15,17.00
2011,07,09,09,16,17.00
2011,07,09,09,17,17.00
2011,07,09,09,18,16.80
2011,07,09,09,19,16.50
2011,07,09,09,20,16.20
2011,07,09,09,21,16.00
2011,07,09,09,22,15.90
2011,07,09,09,23,15.70
2011,07,09,09,24,15.50
2011,07,09,09,25,15.50
2011,07,09,09,26,15.30
2011,07,09,09,27,15.30
2011,07,09,09,28,15.30
2011,07,09,09,29,15.20
2011,07,09,09,30,15.10
2011,07,09,09,31,15.20
2011,07,09,09,32,15.30
2011,07,09,09,33,15.30
2011,07,09,09,34,15.30
2011,07,09,09,35,15.30
2011,07,09,09,36,15.30
2011,07,09,09,37,15.30
2011,07,09,09,38,15.20
2011,07,09,09,39,15.20
2011,07,09,09,40,15.20
2011,07,09,09,41,15.20
2011,07,09,09,42,15.30
2011,07,09,09,43,15.30
2011,07,09,09,44,15.30
2011,07,09,09,45,15.30
2011,07,09,09,46,15.30
2011,07,09,09,47,15.30
2011,07,09,09,48,15.30
2011,07,09,09,49,15.30
2011,07,09,09,50,15.30
2011,07,09,09,51,15.20
2011,07,09,09,52,15.10
2011,07,09,09,53,15.10
2011,07,09,09,54,15.00
2011,07,09,09,55,15.00
2011,07,09,09,56,15.00
2011,07,09,09,57,14.90
2011,07,09,09,58,14.90
2011,07,09,09,59,15.00
2011,07,09,10,00,15.00
2011,07,09,10,01,15.00
2011,07,09,10,02,15.10
2011,07,09,10,03,15.20
2011,07,09,10,04,15.10
2011,07,09,10,05,15.00
2011,07,09,10,06,15.10
2011,07,09,10,07,15.20
2011,07,09,10,08,15.30
2011,07,09,10,09,15.30
2011,07,09,10,10,15.20
2011,07,09,10,11,15.10
2011,07,09,10,12,15.10
2011,07,09,10,13,15.10
2011,07,09,10,14,15.10
2011,07,09,10,15,15.20
2011,07,09,10,16,15.20
2011,07,09,10,17,15.30
2011,07,09,10,18,15.30
2011,07,09,10,19,15.30
2011,07,09,10,20,15.30
2011,07,09,10,21,15.30
2011,07,09,10,22,15.30
2011,07,09,10,23,15.30
2011,07,09,10,24,15.30
2011,07,09,10,25,15.30
2011,07,09,10,26,15.40
2011,07,09,10,27,15.50
2011,07,09,10,28,15.50
2011,07,09,10,29,15.60
2011,07,09,10,30,15.60
2011,07,09,10,31,15.70
2011,07,09,10,32,15.70
2011,07,09,10,33,15.80
2011,07,09,10,34,15.90
2011,07,09,10,35,16.10
2011,07,09,10,36,16.10
2011,07,09,10,37,16.10
2011,07,09,10,38,16.20
2011,07,09,10,39,16.30
2011,07,09,10,40,16.40
2011,07,09,10,41,16.60
2011,07,09,10,42,16.70
2011,07,09,10,43,16.60
2011,07,09,10,44,16.40
2011,07,09,10,45,16.30
2011,07,09,10,46,16.30
2011,07,09,10,47,16.30
2011,07,09,10,48,16.40
2011,07,09,10,49,16.30
2011,07,09,10,50,16.30
2011,07,09,10,51,16.40
2011,07,09,10,52,16.40
2011,07,09,10,53,16.40
2011,07,09,10,54,16.50
2011,07,09,10,55,16.60
2011,07,09,10,56,16.60
2011,07,09,10,57,16.50
2011,07,09,10,58,16.30
2011,07,09,10,59,16.30
2011,07,09,11,00,16.20
2011,07,09,11,01,16.10
2011,07,09,11,02,16.00
2011,07,09,11,03,16.00
2011,07,09,11,04,16.10
2011,07,09,11,05,16.20
2011,07,09,11,06,16.30
2011,07,09,11,07,16.30
2011,07,09,11,08,16.30
2011,07,09,11,09,16.40
2011,07,09,11,10,16.40
2011,07,09,11,11,16.40
2011,07,09,11,12,16.50
2011,07,09,11,13,16.50
2011,07,09,11,14,16.40
2011,07,09,11,15,16.40
2011,07,09,11,16,16.50
2011,07,09,11,17,16.50
2011,07,09,11,18,16.40
2011,07,09,11,19,16.50
2011,07,09,11,20,16.60
2011,07,09,11,21,16.60
2011,07,09,11,22,16.40
2011,07,09,11,23,16.30
2011,07,09,11,24,16.30
2011,07,09,11,25,16.30
2011,07,09,11,26,16.40
2011,07,09,11,27,16.30
2011,07,09,11,28,16.30
2011,07,09,11,29,16.30
2011,07,09,11,30,16.30
2011,07,09,11,31,16.30
2011,07,09,11,32,16.20
2011,07,09,11,33,16.30
2011,07,09,11,34,16.30
2011,07,09,11,35,16.30
2011,07,09,11,36,16.40
2011,07,09,11,37,16.40
2011,07,09,11,38,16.30
2011,07,09,11,39,16.30
2011,07,09,11,40,16.30
2011,07,09,11,41,16.40
2011,07,09,11,42,16.40
2011,07,09,11,43,16.40
2011,07,09,11,44,16.30
2011,07,09,11,45,16.30
2011,07,09,11,46,16.20
2011,07,09,11,47,16.20
2011,07,09,11,48,16.20
2011,07,09,11,49,16.10
2011,07,09,11,50,16.10
2011,07,09,11,51,16.10
2011,07,09,11,52,16.20
2011,07,09,11,53,16.30
2011,07,09,11,54,16.20
2011,07,09,11,55,16.30
2011,07,09,11,56,16.30
2011,07,09,11,57,16.20
2011,07,09,11,58,16.10
2011,07,09,11,59,16.10
2011,07,09,12,00,16.20
2011,07,09,12,01,16.20
2011,07,09,12,02,16.30
2011,07,09,12,03,16.40
2011,07,09,12,04,16.40
2011,07,09,12,05,16.40
2011,07,09,12,06,16.40
2011,07,09,12,07,16.40
2011,07,09,12,08,16.40
2011,07,09,12,09,16.40
2011,07,09,12,10,16.40
2011,07,09,12,11,16.40
2011,07,09,12,12,16.40
2011,07,09,12,13,16.50
2011,07,09,12,14,16.60
2011,07,09,12,15,16.70
2011,07,09,12,16,16.70
2011,07,09,12,17,16.70
2011,07,09,12,18,16.80
2011,07,09,12,19,16.80
2011,07,09,12,20,16.80
2011,07,09,12,21,16.90
2011,07,09,12,22,16.80
2011,07,09,12,23,16.80
2011,07,09,12,24,16.80
2011,07,09,12,25,16.80
2011,07,09,12,26,16.80
2011,07,09,12,27,16.80
2011,07,09,12,28,16.80
2011,07,09,12,29,16.70
2011,07,09,12,30,16.70
2011,07,09,12,31,16.70
2011,07,09,12,32,16.70
2011,07,09,12,33,16.70
2011,07,09,12,34,16.70
2011,07,09,12,35,16.70
2011,07,09,12,36,16.70
2011,07,09,12,37,16.70
2011,07,09,12,38,16.70
2011,07,09,12,39,16.60
2011,07,09,12,40,16.70
2011,07,09,12,41,16.70
2011,07,09,12,42,16.70
2011,07,09,12,43,16.60
2011,07,09,12,44,16.60
2011,07,09,12,45,16.70
2011,07,09,12,46,16.70
2011,07,09,12,47,16.70
2011,07,09,12,48,16.70
2011,07,09,12,49,16.80
2011,07,09,12,50,16.80
2011,07,09,12,51,16.80
2011,07,09,12,52,16.70
2011,07,09,12,53,16.60
2011,07,09,12,54,16.50
2011,07,09,12,55,16.40
2011,07,09,12,56,16.40
2011,07,09,12,57,16.50
2011,07,09,12,58,16.60
2011,07,09,12,59,16.70
2011,07,09,13,00,16.80
2011,07,09,13,01,16.80
2011,07,09,13,02,16.80
2011,07,09,13,03,16.80
2011,07,09,13,04,16.80
2011,07,09,13,05,16.90
2011,07,09,13,06,16.90
2011,07,09,13,07,16.80
2011,07,09,13,08,16.80
2011,07,09,13,09,16.80
2011,07,09,13,10,16.70
2011,07,09,13,11,16.70
2011,07,09,13,12,16.70
2011,07,09,13,13,16.70
2011,07,09,13,14,16.70
2011,07,09,13,15,16.70
2011,07,09,13,16,16.60
2011,07,09,13,17,16.60
2011,07,09,13,18,16.60
2011,07,09,13,19,16.60
2011,07,09,13,20,16.60
2011,07,09,13,21,16.60
2011,07,09,13,22,16.70
2011,07,09,13,23,16.70
2011,07,09,13,24,16.70
2011,07,09,13,25,16.80
2011,07,09,13,26,16.90
2011,07,09,13,27,16.90
2011,07,09,13,28,16.90
2011,07,09,13,29,16.80
2011,07,09,13,30,16.70
2011,07,09,13,31,16.70
2011,07,09,13,32,16.70
2011,07,09,13,33,16.80
2011,07,09,13,34,16.80
2011,07,09,13,35,16.70
2011,07,09,13,36,16.60
2011,07,09,13,37,16.60
2011,07,09,13,38,16.60
2011,07,09,13,39,16.60
2011,07,09,13,40,16.70
2011,07,09,13,41,16.80
2011,07,09,13,42,16.90
2011,07,09,13,43,17.00
2011,07,09,13,44,17.20
2011,07,09,13,45,17.20
2011,07,09,13,46,17.30
2011,07,09,13,47,17.40
2011,07,09,13,48,17.50
2011,07,09,13,49,17.50
2011,07,09,13,50,17.50
2011,07,09,13,51,17.60
2011,07,09,13,52,17.60
2011,07,09,13,53,17.60
2011,07,09,13,54,17.70
2011,07,09,13,55,17.70
2011,07,09,13,56,17.70
2011,07,09,13,57,17.70
2011,07,09,13,58,17.60
2011,07,09,13,59,17.50
2011,07,09,14,00,17.40
2011,07,09,14,01,17.40
2011,07,09,14,02,17.50
2011,07,09,14,03,17.50
2011,07,09,14,04,17.50
2011,07,09,14,05,17.40
2011,07,09,14,06,17.30
2011,07,09,14,07,17.30
2011,07,09,14,08,17.20
2011,07,09,14,09,17.10
2011,07,09,14,10,17.10
2011,07,09,14,11,17.10
2011,07,09,14,12,17.10
2011,07,09,14,13,17.10
2011,07,09,14,14,17.00
2011,07,09,14,15,17.10
2011,07,09,14,16,17.10
2011,07,09,14,17,17.10
2011,07,09,14,18,17.10
2011,07,09,14,19,17.10
2011,07,09,14,20,17.30
2011,07,09,14,21,17.50
2011,07,09,14,22,17.50
2011,07,09,14,23,17.50
2011,07,09,14,24,17.50
2011,07,09,14,25,17.40
2011,07,09,14,26,17.40
2011,07,09,14,27,17.40
2011,07,09,14,28,17.40
2011,07,09,14,29,17.50
2011,07,09,14,30,17.60
2011,07,09,14,31,17.60
2011,07,09,14,32,17.60
2011,07,09,14,33,17.40
2011,07,09,14,34,17.20
2011,07,09,14,35,17.10
2011,07,09,14,36,17.30
2011,07,09,14,37,17.40
2011,07,09,14,38,17.40
2011,07,09,14,39,17.50
2011,07,09,14,40,17.70
2011,07,09,14,41,17.80
2011,07,09,14,42,17.80
2011,07,09,14,43,17.80
2011,07,09,14,44,17.70
2011,07,09,14,45,17.70
2011,07,09,14,46,17.70
2011,07,09,14,47,17.60
2011,07,09,14,48,17.50
2011,07,09,14,49,17.50
2011,07,09,14,50,17.50
2011,07,09,14,51,17.40
2011,07,09,14,52,17.30
2011,07,09,14,53,17.30
2011,07,09,14,54,17.30
2011,07,09,14,55,17.30
2011,07,09,14,56,17.20
2011,07,09,14,57,17.20
2011,07,09,14,58,17.20
2011,07,09,14,59,17.30
2011,07,09,15,00,17.40
2011,07,09,15,01,17.40
2011,07,09,15,02,17.30
2011,07,09,15,03,17.30
2011,07,09,15,04,17.30
2011,07,09,15,05,17.30
2011,07,09,15,06,17.40
2011,07,09,15,07,17.40
2011,07,09,15,08,17.40
2011,07,09,15,09,17.30
2011,07,09,15,10,17.30
2011,07,09,15,11,17.40
2011,07,09,15,12,17.50
2011,07,09,15,13,17.50
2011,07,09,15,14,17.50
2011,07,09,15,15,17.50
2011,07,09,15,16,17.50
2011,07,09,15,17,17.40
2011,07,09,15,18,17.40
2011,07,09,15,19,17.30
2011,07,09,15,20,17.40
2011,07,09,15,21,17.50
2011,07,09,15,22,17.60
2011,07,09,15,23,17.70
2011,07,09,15,24,17.80
2011,07,09,15,25,17.90
2011,07,09,15,26,17.90
2011,07,09,15,27,17.90
2011,07,09,15,28,18.00
2011,07,09,15,29,18.00
2011,07,09,15,30,17.90
2011,07,09,15,31,17.80
2011,07,09,15,32,17.70
2011,07,09,15,33,17.70
2011,07,09,15,34,17.60
2011,07,09,15,35,17.50
2011,07,09,15,36,17.50
2011,07,09,15,37,17.40
2011,07,09,15,38,17.50
2011,07,09,15,39,17.60
2011,07,09,15,40,17.80
2011,07,09,15,41,17.90
2011,07,09,15,42,18.00
2011,07,09,15,43,18.00
2011,07,09,15,44,17.90
2011,07,09,15,45,17.90
2011,07,09,15,46,18.00
2011,07,09,15,47,18.10
2011,07,09,15,48,18.00
2011,07,09,15,49,17.90
2011,07,09,15,50,17.70
2011,07,09,15,51,17.60
2011,07,09,15,52,17.50
2011,07,09,15,53,17.50
2011,07,09,15,54,17.60
2011,07,09,15,55,17.60
2011,07,09,15,56,17.60
2011,07,09,15,57,17.70
2011,07,09,15,58,17.70
2011,07,09,15,59,17.70
2011,07,09,16,00,17.90
2011,07,09,16,01,17.90
2011,07,09,16,02,18.00
2011,07,09,16,03,18.10
2011,07,09,16,04,18.10
2011,07,09,16,05,18.00
2011,07,09,16,06,17.90
2011,07,09,16,07,17.90
2011,07,09,16,08,17.90
2011,07,09,16,09,17.80
2011,07,09,16,10,17.80
2011,07,09,16,11,17.80
2011,07,09,16,12,17.90
2011,07,09,16,13,18.00
2011,07,09,16,14,18.10
2011,07,09,16,15,18.10
2011,07,09,16,16,18.00
2011,07,09,16,17,17.90
2011,07,09,16,18,17.80
2011,07,09,16,19,17.90
2011,07,09,16,20,18.00
2011,07,09,16,21,18.10
2011,07,09,16,22,18.10
2011,07,09,16,23,18.00
2011,07,09,16,24,17.80
2011,07,09,16,25,17.80
2011,07,09,16,26,17.90
2011,07,09,16,27,17.90
2011,07,09,16,28,17.90
2011,07,09,16,29,17.90
2011,07,09,16,30,17.90
2011,07,09,16,31,17.90
2011,07,09,16,32,17.90
2011,07,09,16,33,17.80
2011,07,09,16,34,17.70
2011,07,09,16,35,17.80
2011,07,09,16,36,17.90
2011,07,09,16,37,18.10
2011,07,09,16,38,18.20
2011,07,09,16,39,18.10
2011,07,09,16,40,18.10
2011,07,09,16,41,17.90
2011,07,09,16,42,17.90
2011,07,09,16,43,17.90
2011,07,09,16,44,17.90
2011,07,09,16,45,17.90
2011,07,09,16,46,17.90
2011,07,09,16,47,17.90
2011,07,09,16,48,17.90
2011,07,09,16,49,17.90
2011,07,09,16,50,17.90
2011,07,09,16,51,17.90
2011,07,09,16,52,17.90
2011,07,09,16,53,17.90
2011,07,09,16,54,17.90
2011,07,09,16,55,18.10
2011,07,09,16,56,18.30
2011,07,09,16,57,18.40
2011,07,09,16,58,18.50
2011,07,09,16,59,18.50
2011,07,09,17,00,18.30
2011,07,09,17,01,18.30
2011,07,09,17,02,18.30
2011,07,09,17,03,18.20
2011,07,09,17,04,18.20
2011,07,09,17,05,18.10
2011,07,09,17,06,18.00
2011,07,09,17,07,17.90
2011,07,09,17,08,17.90
2011,07,09,17,09,17.90
2011,07,09,17,10,18.00
2011,07,09,17,11,18.10
2011,07,09,17,12,18.20
2011,07,09,17,13,18.20
2011,07,09,17,14,18.20
2011,07,09,17,15,18.20
2011,07,09,17,16,18.30
2011,07,09,17,17,18.20
2011,07,09,17,18,18.20
2011,07,09,17,19,18.20
2011,07,09,17,20,18.10
2011,07,09,17,21,18.10
2011,07,09,17,22,18.10
2011,07,09,17,23,18.10
2011,07,09,17,24,18.10
2011,07,09,17,25,18.10
2011,07,09,17,26,18.10
2011,07,09,17,27,18.10
2011,07,09,17,28,18.20
2011,07,09,17,29,18.20
2011,07,09,17,30,18.20
2011,07,09,17,31,18.20